TimeCDT,TemperatureF,Dew PointF,Humidity,Sea Level PressureIn,VisibilityMPH,Wind Direction,Wind SpeedMPH,Gust SpeedMPH,PrecipitationIn,Events,Conditions,WindDirDegrees,DateUTC
12:12 AM,32.0,32.0,100,29.71,10.0,West,3.5,-,N/A,,Overcast,280,2013-10-20 05:12:00
12:33 AM,32.0,32.0,100,29.71,10.0,Calm,Calm,-,N/A,,Overcast,0,2013-10-20 05:33:00
12:53 AM,32.0,32.0,100,29.70,7.0,Calm,Calm,-,N/A,,Overcast,0,2013-10-20 05:53:00
1:12 AM,32.0,32.0,100,29.71,10.0,West,3.5,-,N/A,,Overcast,280,2013-10-20 06:12:00
1:33 AM,32.0,32.0,100,29.71,10.0,Calm,Calm,-,N/A,,Overcast,0,2013-10-20 06:33:00
1:53 AM,32.0,32.0,100,29.70,10.0,West,3.5,-,N/A,,Overcast,270,2013-10-20 06:53:00
2:12 AM,33.8,32.0,93,29.71,10.0,Calm,Calm,-,N/A,,Overcast,0,2013-10-20 07:12:00
2:33 AM,33.8,32.0,93,29.70,10.0,Calm,Calm,-,N/A,,Overcast,0,2013-10-20 07:33:00
2:53 AM,33.8,32.0,93,29.70,10.0,Calm,Calm,-,N/A,,Overcast,0,2013-10-20 07:53:00
3:12 AM,33.8,32.0,93,29.70,10.0,Calm,Calm,-,N/A,,Overcast,0,2013-10-20 08:12:00
3:33 AM,33.8,32.0,93,29.70,10.0,Calm,Calm,-,N/A,,Overcast,0,2013-10-20 08:33:00
3:52 AM,33.8,32.0,93,29.69,10.0,Calm,Calm,-,N/A,,Overcast,0,2013-10-20 08:52:00
4:13 AM,33.8,32.0,93,29.69,10.0,Calm,Calm,-,N/A,,Overcast,0,2013-10-20 09:13:00
4:33 AM,33.8,32.0,93,29.70,10.0,Calm,Calm,-,N/A,,Overcast,0,2013-10-20 09:33:00
4:53 AM,33.8,32.0,93,29.70,10.0,Calm,Calm,-,N/A,,Overcast,0,2013-10-20 09:53:00
5:12 AM,33.8,32.0,93,29.70,10.0,Calm,Calm,-,N/A,,Overcast,0,2013-10-20 10:12:00
5:33 AM,33.8,30.2,87,29.69,10.0,Calm,Calm,-,N/A,,Overcast,0,2013-10-20 10:33:00
5:53 AM,33.8,30.2,87,29.69,10.0,Calm,Calm,-,N/A,,Overcast,0,2013-10-20 10:53:00
6:13 AM,33.8,30.2,87,29.69,10.0,Calm,Calm,-,N/A,,Overcast,0,2013-10-20 11:13:00
6:32 AM,33.8,30.2,87,29.69,10.0,South,3.5,-,N/A,,Overcast,180,2013-10-20 11:32:00
6:53 AM,32.0,30.2,93,29.69,10.0,Calm,Calm,-,N/A,,Overcast,0,2013-10-20 11:53:00
7:13 AM,32.0,30.2,93,29.69,10.0,Calm,Calm,-,N/A,,Overcast,0,2013-10-20 12:13:00
7:32 AM,32.0,30.2,93,29.69,10.0,South,3.5,-,N/A,,Overcast,170,2013-10-20 12:32:00
7:53 AM,32.0,30.2,93,29.69,10.0,Calm,Calm,-,N/A,,Overcast,0,2013-10-20 12:53:00
8:12 AM,32.0,30.2,93,29.69,10.0,ESE,3.5,-,N/A,,Overcast,120,2013-10-20 13:12:00
8:33 AM,32.0,30.2,93,29.70,10.0,Calm,Calm,-,N/A,,Overcast,0,2013-10-20 13:33:00
8:53 AM,32.0,30.2,93,29.70,10.0,Calm,Calm,-,N/A,,Overcast,0,2013-10-20 13:53:00
9:13 AM,32.0,30.2,93,29.71,10.0,Calm,Calm,-,N/A,,Overcast,0,2013-10-20 14:13:00
9:32 AM,33.8,30.2,87,29.71,10.0,Calm,Calm,-,N/A,,Overcast,0,2013-10-20 14:32:00
9:53 AM,33.8,30.2,87,29.71,10.0,Calm,Calm,-,N/A,,Overcast,0,2013-10-20 14:53:00
10:13 AM,33.8,32.0,93,29.71,7.0,Calm,Calm,-,N/A,Snow,Light Snow,0,2013-10-20 15:13:00
10:32 AM,33.8,32.0,93,29.71,4.0,Calm,Calm,-,N/A,Snow,Light Snow,0,2013-10-20 15:32:00
10:53 AM,35.6,32.0,87,29.71,10.0,Calm,Calm,-,N/A,,Light Drizzle,0,2013-10-20 15:53:00
11:13 AM,35.6,32.0,87,29.71,10.0,Calm,Calm,-,N/A,Rain,Light Rain,0,2013-10-20 16:13:00
11:32 AM,35.6,32.0,87,29.71,10.0,Calm,Calm,-,N/A,Rain,Light Rain,0,2013-10-20 16:32:00
11:53 AM,37.4,32.0,81,29.71,10.0,Calm,Calm,-,N/A,Rain,Light Rain,0,2013-10-20 16:53:00
12:13 PM,37.4,33.8,87,29.70,7.0,Calm,Calm,-,N/A,Rain,Light Rain,0,2013-10-20 17:13:00
12:32 PM,35.6,32.0,87,29.70,10.0,Calm,Calm,-,N/A,Rain,Light Rain,0,2013-10-20 17:32:00
12:53 PM,37.4,33.8,87,29.70,10.0,Calm,Calm,-,N/A,Rain,Light Rain,0,2013-10-20 17:53:00
1:13 PM,35.6,33.8,93,29.69,10.0,Calm,Calm,-,N/A,Rain,Light Rain,0,2013-10-20 18:13:00
1:32 PM,37.4,33.8,87,29.69,10.0,Calm,Calm,-,N/A,Rain,Light Rain,0,2013-10-20 18:32:00
1:53 PM,35.6,33.8,93,29.68,7.0,Calm,Calm,-,N/A,Rain,Light Rain,0,2013-10-20 18:53:00
2:12 PM,35.6,33.8,93,29.68,7.0,Calm,Calm,-,N/A,Rain,Light Rain,0,2013-10-20 19:12:00
2:32 PM,37.4,33.8,87,29.68,10.0,Calm,Calm,-,N/A,Rain,Rain,0,2013-10-20 19:32:00
2:53 PM,35.6,33.8,93,29.68,10.0,Calm,Calm,-,N/A,Rain,Light Rain,0,2013-10-20 19:53:00
3:13 PM,35.6,33.8,93,29.68,3.0,Calm,Calm,-,N/A,Rain,Rain,0,2013-10-20 20:13:00
3:32 PM,35.6,33.8,93,29.68,5.0,Calm,Calm,-,N/A,Rain,Light Rain,0,2013-10-20 20:32:00
3:53 PM,35.6,33.8,93,29.69,5.0,Calm,Calm,-,N/A,Rain,Light Rain,0,2013-10-20 20:53:00
4:13 PM,35.6,33.8,93,29.69,7.0,Calm,Calm,-,N/A,Rain,Light Rain,0,2013-10-20 21:13:00
4:32 PM,35.6,33.8,93,29.69,5.0,Calm,Calm,-,N/A,Rain,Light Rain,0,2013-10-20 21:32:00
4:53 PM,35.6,33.8,93,29.69,5.0,Calm,Calm,-,N/A,Rain,Light Rain,0,2013-10-20 21:53:00
5:13 PM,35.6,33.8,93,29.70,4.0,Calm,Calm,-,N/A,Rain,Light Rain,0,2013-10-20 22:13:00
5:32 PM,35.6,33.8,93,29.70,7.0,Calm,Calm,-,N/A,Rain,Light Rain,0,2013-10-20 22:32:00
5:53 PM,33.8,33.8,100,29.70,5.0,Calm,Calm,-,N/A,Rain,Light Rain,0,2013-10-20 22:53:00
6:13 PM,33.8,33.8,100,29.70,5.0,Calm,Calm,-,N/A,Rain,Light Rain,0,2013-10-20 23:13:00
6:32 PM,33.8,33.8,100,29.70,7.0,Calm,Calm,-,N/A,Rain,Light Rain,0,2013-10-20 23:32:00
6:53 PM,33.8,33.8,100,29.71,7.0,Calm,Calm,-,N/A,Rain,Light Rain,0,2013-10-20 23:53:00
7:13 PM,33.8,33.8,100,29.71,7.0,Calm,Calm,-,N/A,Rain,Light Rain,0,2013-10-21 00:13:00
7:32 PM,33.8,33.8,100,29.71,7.0,West,3.5,-,N/A,Rain,Light Rain,270,2013-10-21 00:32:00
7:53 PM,33.8,33.8,100,29.71,7.0,West,3.5,-,N/A,Rain,Light Rain,260,2013-10-21 00:53:00
8:13 PM,33.8,33.8,100,29.71,7.0,Calm,Calm,-,N/A,Rain,Light Rain,0,2013-10-21 01:13:00
8:32 PM,33.8,33.8,100,29.71,7.0,Calm,Calm,-,N/A,,Overcast,0,2013-10-21 01:32:00
8:53 PM,33.8,32.0,93,29.71,10.0,Calm,Calm,-,N/A,Rain,Rain,0,2013-10-21 01:53:00
9:13 PM,33.8,32.0,93,29.71,10.0,West,3.5,-,N/A,,Overcast,260,2013-10-21 02:13:00
9:33 PM,33.8,33.8,100,29.71,10.0,Calm,Calm,-,N/A,,Light Drizzle,0,2013-10-21 02:33:00
9:53 PM,33.8,32.0,93,29.71,5.0,West,5.8,-,N/A,Snow,Light Snow,260,2013-10-21 02:53:00
10:12 PM,33.8,32.0,93,29.71,4.0,NW,10.4,-,N/A,Snow,Light Snow,310,2013-10-21 03:12:00
10:33 PM,32.0,30.2,93,29.71,4.0,NW,9.2,-,N/A,Snow,Light Snow,320,2013-10-21 03:33:00
10:53 PM,32.0,30.2,93,29.71,4.0,NW,8.1,16.1,N/A,Snow,Light Snow,320,2013-10-21 03:53:00
11:12 PM,32.0,30.2,93,29.71,4.0,NW,6.9,-,N/A,Snow,Light Snow,310,2013-10-21 04:12:00
11:33 PM,32.0,30.2,93,29.72,3.0,NW,9.2,19.6,N/A,Snow,Light Snow,320,2013-10-21 04:33:00
11:53 PM,30.2,30.2,100,29.72,2.5,NW,8.1,-,N/A,Snow,Light Snow,310,2013-10-21 04:53:00